Location: ?????
(37.7324°N, 23.9257°E)
Time: 20:48:16
(UTC+00:00)

YAOGAN 6 - Pass Details

Date: 29 November 2020
Orbit: 465 x 502 km, 97.0° (Epoch: 19 January)

Event Time Altitude Azimuth Distance (km) Brightness Sun altitude
Rises 03:51:41 0° 21° (NNE) 2,516 6.3 -17.0°
Reaches altitude 10° 03:53:52 10° 31° (NNE) 1,630 5.4 -16.6°
Maximum altitude 03:57:05 34° 97° (E) 789 4.3 -15.9°
Drops below altitude 10° 04:00:16 10° 164° (SSE) 1,613 5.6 -15.3°
Sets 04:02:25 0° 174° (S) 2,483 6.5 -14.9°
